Other Surface Observations
Issued by NWS

Home | Current Version | Previous Version | Text Only | Print | Product List | Glossary On
Versions: 1 2 3 4 5 6 7 8 9 10 11 12 13 14 15 16 17 18 19 20 21 22 23 24 25 26 27 28 29 30 31 32 33 34 35 36 37 38 39 40 41 42 43 44 45 46 47 48 49 50
000
SXUS52 KTAE 012105
OSOTAE
OSOTAE
North Florida/South Alabama/Southwest Georgia Weather Roundup
National Weather Service Tallahassee Florida
500 PM EDT SAT OCT 01 2016

Note: "fair" indicates few or no clouds below 12,000 feet with no
significant weather and/or obstructions to visibility.

!FLZ017-115-028-034-025-012200
...North Florida...

CITY           SKY/WX    TMP DP  RH WIND       PRES   REMARKS
TALLAHASSEE    SUNNY     85  51  31 CALM      30.00F
APALACHICOLA   SUNNY     80  61  52 SW9       30.01F
PERRY          SUNNY     87  54  32 W7        30.00S
CROSS CITY     SUNNY     86  59  39 S5        29.99F
JACKSONVILLE   MOSUNNY   83  68  60 E10       29.98F
$$

!FLZ112-006-005-002-011-012200
...Florida Panhandle...

CITY           SKY/WX    TMP DP  RH WIND       PRES   REMARKS
MARIANNA       SUNNY     82  53  36 VRB3      30.00F
BONIFAY        FAIR      82  52  35 CALM      30.02F
PANAMA CITY NW FAIR      83  51  33 CALM      30.00F
TYNDALL AFB    SUNNY     80  58  46 SW8       30.01F
TYND DRONE APT FAIR      79  60  51 W7        30.01F
DE FUNIAK SPR  FAIR      80  53  39 N3        30.03S
EGLIN AFB      MOSUNNY   81  57  43 SE8       30.01F
DESTIN         SUNNY     83  57  41 VRB5      30.02S
HURLBURT       SUNNY     80  55  41 S10       30.01S
CRESTVIEW      SUNNY     83  50  31 VRB6      30.03F
PENSACOLA      MOSUNNY   84  55  36 N8        30.01F
$$

!ALZ063-066-012200
...South Alabama...

CITY           SKY/WX    TMP DP  RH WIND       PRES   REMARKS
DOTHAN         SUNNY     82  50  32 W6        30.05F
OZARK CAIRNS   SUNNY     81  54  38 VRB3      30.02R
FT RUCKER HELI SUNNY     81  52  36 W5        30.01F
RUCKER HELI 3  NOT AVBL
RUCKER HELI 2  FAIR      82  51  34 CALM      30.01F
FLORALA APT    SUNNY     80  51  36 S3        30.04F
ANDALUSIA      SUNNY     84  52  33 NW8       30.02F
TROY           SUNNY     81  51  35 MISG      30.03F
EUFALA         FAIR      86  48  26 E8        30.00F
MOBILE         PTSUNNY   81  56  42 N3        30.02F
$$

!GAZ120>161-012200
...Southwest and South Central Georgia...

CITY           SKY/WX    TMP DP  RH WIND       PRES   REMARKS
THOMASVILLE    FAIR      82  55  39 S3        30.02F
BAINBRIDGE     SUNNY     82  52  34 W5        30.01F
MOODY AFB      SUNNY     83  49  30 CALM      29.99F
VALDOSTA       SUNNY     87  48  25 CALM      30.00F
MOULTRIE       SUNNY     82  50  32 CALM      30.02F
BLAKELY        SUNNY     86  46  25 CALM      30.01S
ALBANY         SUNNY     85  49  28 VRB3      30.03F
TIFTON         FAIR      82  52  35 CALM      30.01F
FITZGERALD       N/A     85  57  38 SE3       30.04F
CORDELE        FAIR      86  46  24 SW5       30.02F
AMERICUS       FAIR      81  41  24 N5        30.03F
HOMERVILLE     FAIR      88  50  27 W5        30.00S
$$

!GMZ750-755-770-775-012200
...Coastal and Buoy Obs...

STATION/POSITION TIME  TEMP    WIND        PRES    VSBY  WAVE
                       AIR SEA DIR/SP/G                  HT/PER
                 (UTC) (F)     (DEG/KT/KT) (MB)    (MI)  (FT/S)
KEATON BEACH     2100   79     260/  8/  9 1015.8F
CEDAR KEY        2000   83     240/  4/  6 1016.4F
C TOWER          2100   79      CALM  /  1 1016.9F
APALACHICOLA BUO 1950   80 84   50/ 10/ 12 1016.2          1/ 4
PANAMA CITY BUOY 1950   78 84              1017.1          2/ 4
MOBILE BUOY      2000   79 84   70/  8/ 10 1016.4F
ORANGE BCH AL BU 1950   77 84  170/  2/  4 1017.2          1
$$




USA.gov is the U.S. government's official web portal to all federal, state and local government web resources and services.